Jacksonville, FL

9:18 AM EDT on September 27, 2016 (GMT -0400)
Craig Municipal

Weather History for KCRG - October, 2010

Change the Weather History Date:

Tuesday, October 5, 2010

  Actual Average Record
Temperature  
Mean Temperature 68 °F -  
Max Temperature 75 °F 79 °F 88 °F (2002)
Min Temperature 61 °F 66 °F 55 °F (2014)
Cooling Degree Days 3    
Growing Degree Days 18 (Base 50)    
Moisture  
Dew Point 55 °F    
Average Humidity 63    
Maximum Humidity 78    
Minimum Humidity 51    
Precipitation  
Precipitation 0.00 in - - ()
Sea Level Pressure  
Sea Level Pressure 30.10 in    
Wind  
Wind Speed 10 mph (NNE)    
Max Wind Speed 15 mph    
Max Gust Speed 23 mph    
Visibility 10 miles    
Events      
Averages and records for this station are not official NWS values.
T = Trace of Precipitation, MM = Missing Value Source: NWS Daily Summary

Daily Weather History Graph

Daily Weather History Graph

Search for Another Location

Airport or City:

Trip Planner

Search our weather history database for the weather conditions in past years. The results will help you decide how hot, cold, wet, or windy it might be!

Date:

Astronomy

Oct. 05, 2010 Rise Set
Actual Time 7:21 AM EDT 7:06 PM EDT
Civil Twilight 6:57 AM EDT 7:30 PM EDT
Nautical Twilight 6:30 AM EDT 7:58 PM EDT
Astronomical Twilight 6:02 AM EDT 8:26 PM EDT
Moon 4:51 AM EDT (10/5) 5:30 PM EDT (10/5)
Length of Visible Light 12h 32m
Length of Day
11h 44m
Waning Crescent, 7% of the Moon is Illuminated
Oct 5
Waning Crescent
Oct 7
New
Oct 14
First Quarter
Oct 22
Full
Oct 30
Last Quarter

Hourly Weather History & Observations

Time (EDT) Temp. Dew Point Humidity Pressure Visibility Wind Dir Wind Speed Gust Speed Precip Events Conditions
12:53 AM 66.0 °F 55.9 °F 70% 30.08 in 10.0 mi NNW 10.4 mph - N/A   Clear
1:53 AM 64.9 °F 54.0 °F 68% 30.07 in 10.0 mi North 8.1 mph - N/A   Scattered Clouds
2:53 AM 64.0 °F 54.0 °F 70% 30.07 in 10.0 mi North 9.2 mph - N/A   Clear
3:53 AM 63.0 °F 54.0 °F 72% 30.06 in 10.0 mi North 9.2 mph - N/A   Clear
4:53 AM 62.1 °F 53.1 °F 72% 30.06 in 10.0 mi North 10.4 mph - N/A   Clear
5:53 AM 61.0 °F 54.0 °F 78% 30.08 in 10.0 mi North 10.4 mph - N/A   Clear
6:53 AM 61.0 °F 54.0 °F 78% 30.09 in 10.0 mi North 10.4 mph - N/A   Scattered Clouds
7:53 AM 61.0 °F 54.0 °F 78% 30.11 in 10.0 mi North 10.4 mph - N/A   Scattered Clouds
8:53 AM 63.0 °F 55.0 °F 75% 30.13 in 10.0 mi North 9.2 mph - N/A   Clear
9:53 AM 66.9 °F 55.9 °F 68% 30.14 in 10.0 mi North 9.2 mph - N/A   Clear
10:53 AM 72.0 °F 57.9 °F 61% 30.14 in 10.0 mi North 9.2 mph - N/A   Clear
11:53 AM 73.9 °F 59.0 °F 59% 30.13 in 10.0 mi NNE 15.0 mph 19.6 mph N/A   Clear
12:53 PM 75.9 °F 57.9 °F 54% 30.12 in 10.0 mi NNE 10.4 mph 23.0 mph N/A   Clear
1:53 PM 75.0 °F 57.9 °F 55% 30.11 in 10.0 mi NE 13.8 mph 19.6 mph N/A   Mostly Cloudy
2:53 PM 75.9 °F 57.0 °F 52% 30.09 in 10.0 mi NE 12.7 mph 18.4 mph N/A   Mostly Cloudy
3:53 PM 75.0 °F 55.9 °F 51% 30.08 in 10.0 mi ENE 11.5 mph - N/A   Clear
4:53 PM 73.9 °F 55.9 °F 53% 30.08 in 10.0 mi NNE 12.7 mph 20.7 mph N/A   Clear
5:53 PM 72.0 °F 54.0 °F 53% 30.09 in 10.0 mi NNE 13.8 mph - N/A   Clear
6:53 PM 70.0 °F 54.0 °F 57% 30.10 in 10.0 mi NE 8.1 mph - N/A   Clear
7:53 PM 68.0 °F 53.1 °F 59% 30.12 in 10.0 mi NE 8.1 mph - N/A   Clear
8:53 PM 68.0 °F 51.1 °F 55% 30.12 in 10.0 mi NNE 8.1 mph - N/A   Clear
9:53 PM 66.9 °F 51.1 °F 57% 30.13 in 10.0 mi NNE 5.8 mph - N/A   Partly Cloudy
10:53 PM 64.9 °F 53.1 °F 65% 30.14 in 10.0 mi North 5.8 mph - N/A   Partly Cloudy
11:53 PM 64.9 °F 51.1 °F 61% 30.14 in 10.0 mi North 8.1 mph - N/A   Clear